When you browse on this site, cookies collect data to enhance your experience and personalize the content and advertising you see.
Visit our Privacy Policy to learn more. By continuing to use the site, you agree to this use of cookies and data.
  • Em Portugal
  • Lista de países
  • Para 7 dias
  • Temperatura da água
  • Mapa do tempo
  • Widgets de tempo
  • user-avatar
    Iniciar Sessão

    Previsão horária em Stepuzhichi

    Hoje, 29 Janeiro, Quarta-feira

    Tempo Temperatura Precipitação Vento Pressão Humidade
    00:00 0°C° 0.1 mm 4 m/s 733 mmHg 96%
    01:00 0°C° 0.1 mm 4 m/s 733 mmHg 96%
    02:00 0°C° 0 mm 4 m/s 732 mmHg 97%
    03:00 0°C° 0 mm 4 m/s 732 mmHg 97%
    04:00 0°C° 0 mm 4 m/s 731 mmHg 97%
    05:00 0°C° 0 mm 4 m/s 731 mmHg 97%
    06:00 0°C° 0 mm 4 m/s 731 mmHg 97%
    07:00 0°C° 0 mm 4 m/s 731 mmHg 96%
    08:00 -1°C° 0 mm 4 m/s 731 mmHg 95%
    09:00 -1°C° 0.9 mm 4 m/s 730 mmHg 96%
    10:00 0°C° 0.9 mm 3 m/s 730 mmHg 97%
    11:00 -1°C° 0.9 mm 3 m/s 730 mmHg 98%
    12:00 0°C° 0.6 mm 3 m/s 730 mmHg 98%
    13:00 0°C° 0.6 mm 3 m/s 731 mmHg 97%
    14:00 0°C° 0 mm 3 m/s 731 mmHg 93%
    15:00 0°C° 0 mm 3 m/s 731 mmHg 92%
    16:00 0°C° 0 mm 3 m/s 731 mmHg 90%
    17:00 0°C° 0 mm 3 m/s 731 mmHg 89%
    18:00 -1°C° 0 mm 3 m/s 731 mmHg 89%
    19:00 -1°C° 0 mm 2 m/s 731 mmHg 89%
    20:00 -2°C° 0 mm 2 m/s 731 mmHg 89%
    21:00 -2°C° 0 mm 2 m/s 731 mmHg 91%
    22:00 -2°C° 0 mm 2 m/s 731 mmHg 93%
    23:00 -2°C° 0 mm 2 m/s 731 mmHg 94%

    Amanhã, 30 Janeiro, Quinta-feira

    Tempo Temperatura Precipitação Vento Pressão Humidade
    00:00 -2°C° 0 mm 2 m/s 732 mmHg 93%
    01:00 -1°C° 0 mm 2 m/s 732 mmHg 91%
    02:00 -1°C° 0 mm 2 m/s 733 mmHg 90%
    03:00 -1°C° 0.1 mm 2 m/s 733 mmHg 92%
    04:00 -1°C° 0.1 mm 3 m/s 733 mmHg 94%
    05:00 -1°C° 0.1 mm 3 m/s 733 mmHg 97%
    06:00 -2°C° 0.2 mm 4 m/s 733 mmHg 96%
    07:00 -2°C° 0.2 mm 5 m/s 734 mmHg 96%
    08:00 -2°C° 0.2 mm 6 m/s 734 mmHg 95%
    09:00 -2°C° 0 mm 6 m/s 734 mmHg 92%
    10:00 -2°C° 0 mm 6 m/s 735 mmHg 89%
    11:00 -2°C° 0 mm 6 m/s 735 mmHg 86%
    12:00 -2°C° 0 mm 6 m/s 735 mmHg 87%
    13:00 0°C° 0 mm 5 m/s 735 mmHg 88%
    14:00 0°C° 0 mm 5 m/s 736 mmHg 89%
    15:00 0°C° 0.1 mm 5 m/s 736 mmHg 91%
    16:00 -1°C° 0.1 mm 5 m/s 736 mmHg 93%
    17:00 -1°C° 0.1 mm 4 m/s 736 mmHg 95%
    18:00 -1°C° 0 mm 4 m/s 736 mmHg 94%
    19:00 -2°C° 0 mm 4 m/s 736 mmHg 93%
    20:00 -1°C° 0 mm 3 m/s 737 mmHg 92%
    21:00 -1°C° 0 mm 3 m/s 736 mmHg 92%
    22:00 -2°C° 0 mm 3 m/s 736 mmHg 92%
    23:00 -2°C° 0 mm 3 m/s 736 mmHg 92%

    Depois de amanhã, 31 Janeiro, Sexta-feira

    Tempo Temperatura Precipitação Vento Pressão Humidade
    00:00 -2°C° 0 mm 3 m/s 735 mmHg 93%
    01:00 -2°C° 0 mm 4 m/s 735 mmHg 93%
    02:00 -2°C° 0 mm 4 m/s 735 mmHg 94%
    03:00 -1°C° 0.1 mm 4 m/s 734 mmHg 95%
    04:00 0°C° 0.1 mm 3 m/s 734 mmHg 96%
    05:00 +1°C° 0.1 mm 3 m/s 733 mmHg 97%
    06:00 +1°C° 0.1 mm 3 m/s 733 mmHg 97%
    07:00 +1°C° 0.1 mm 3 m/s 732 mmHg 97%
    08:00 +1°C° 0.1 mm 3 m/s 732 mmHg 97%
    09:00 +1°C° 0.2 mm 3 m/s 732 mmHg 97%
    10:00 +1°C° 0.2 mm 3 m/s 731 mmHg 98%
    11:00 +3°C° 0.2 mm 2 m/s 731 mmHg 98%
    12:00 +3°C° 0.2 mm 2 m/s 731 mmHg 98%
    13:00 +3°C° 0.2 mm 2 m/s 731 mmHg 98%
    14:00 +3°C° 0.2 mm 2 m/s 731 mmHg 98%
    15:00 +2°C° 0.1 mm 2 m/s 731 mmHg 98%
    16:00 +2°C° 0.1 mm 2 m/s 731 mmHg 98%
    17:00 +2°C° 0.1 mm 2 m/s 732 mmHg 98%
    18:00 +2°C° 0.1 mm 2 m/s 732 mmHg 98%
    19:00 +2°C° 0.1 mm 2 m/s 733 mmHg 97%
    20:00 +2°C° 0.1 mm 2 m/s 734 mmHg 97%
    21:00 +2°C° 0 mm 2 m/s 734 mmHg 97%
    22:00 +2°C° 0 mm 2 m/s 734 mmHg 97%
    23:00 +2°C° 0 mm 2 m/s 734 mmHg 97%

    1 Fevereiro, Sábado

    Tempo Temperatura Precipitação Vento Pressão Humidade
    00:00 +2°C° 0 mm 2 m/s 735 mmHg 96%
    01:00 +2°C° 0 mm 2 m/s 735 mmHg 96%
    02:00 +2°C° 0 mm 2 m/s 735 mmHg 95%
    03:00 +2°C° 0 mm 2 m/s 735 mmHg 96%
    04:00 +2°C° 0 mm 2 m/s 735 mmHg 96%
    05:00 +2°C° 0 mm 2 m/s 735 mmHg 97%
    06:00 +1°C° 0 mm 3 m/s 735 mmHg 97%
    07:00 +2°C° 0 mm 3 m/s 735 mmHg 96%
    08:00 +2°C° 0 mm 3 m/s 735 mmHg 96%
    09:00 +3°C° 0 mm 4 m/s 735 mmHg 96%
    10:00 +3°C° 0 mm 4 m/s 735 mmHg 96%
    11:00 +3°C° 0 mm 4 m/s 735 mmHg 96%
    12:00 +3°C° 0.2 mm 4 m/s 735 mmHg 96%
    13:00 +4°C° 0.2 mm 4 m/s 735 mmHg 96%
    14:00 +3°C° 0.2 mm 5 m/s 735 mmHg 96%
    15:00 +3°C° 0.4 mm 5 m/s 734 mmHg 96%
    16:00 +3°C° 0.4 mm 5 m/s 734 mmHg 96%
    17:00 +5°C° 0.4 mm 5 m/s 733 mmHg 96%
    18:00 +5°C° 0.1 mm 5 m/s 733 mmHg 96%
    19:00 +5°C° 0.1 mm 5 m/s 733 mmHg 96%
    20:00 +5°C° 0.1 mm 5 m/s 733 mmHg 95%
    21:00 +5°C° 0.1 mm 5 m/s 733 mmHg 95%
    22:00 +5°C° 0.1 mm 5 m/s 732 mmHg 95%
    23:00 +5°C° 0.1 mm 5 m/s 732 mmHg 95%

    2 Fevereiro, Domingo

    Tempo Temperatura Precipitação Vento Pressão Humidade
    00:00 +5°C° 0.1 mm 5 m/s 731 mmHg 95%
    01:00 +5°C° 0.1 mm 5 m/s 730 mmHg 95%
    02:00 +5°C° 0.1 mm 5 m/s 730 mmHg 94%
    03:00 +5°C° 0.6 mm 5 m/s 729 mmHg 94%
    04:00 +4°C° 0.6 mm 6 m/s 728 mmHg 94%
    05:00 +4°C° 0.6 mm 6 m/s 727 mmHg 94%
    06:00 +4°C° 0.6 mm 6 m/s 727 mmHg 94%
    07:00 +5°C° 0.6 mm 6 m/s 727 mmHg 94%
    08:00 +6°C° 0.6 mm 5 m/s 727 mmHg 95%
    09:00 +5°C° 0.2 mm 6 m/s 727 mmHg 92%
    10:00 +5°C° 0.2 mm 6 m/s 728 mmHg 89%
    11:00 +5°C° 0.2 mm 7 m/s 728 mmHg 86%
    12:00 +5°C° 0 mm 7 m/s 729 mmHg 81%
    13:00 +4°C° 0 mm 7 m/s 730 mmHg 77%
    14:00 +4°C° 0 mm 8 m/s 730 mmHg 73%
    15:00 +3°C° 0 mm 7 m/s 731 mmHg 74%
    16:00 +3°C° 0 mm 6 m/s 731 mmHg 75%
    17:00 +3°C° 0 mm 6 m/s 732 mmHg 76%
    18:00 +2°C° 0 mm 6 m/s 732 mmHg 80%
    19:00 +2°C° 0 mm 6 m/s 732 mmHg 83%
    20:00 +2°C° 0 mm 6 m/s 732 mmHg 86%
    21:00 +2°C° 0.2 mm 6 m/s 732 mmHg 86%
    22:00 +2°C° 0.2 mm 6 m/s 732 mmHg 86%
    23:00 +2°C° 0.2 mm 5 m/s 731 mmHg 86%

    3 Fevereiro, Segunda-feira

    Tempo Temperatura Precipitação Vento Pressão Humidade
    00:00 +2°C° 0.1 mm 6 m/s 731 mmHg 85%
    01:00 +2°C° 0.1 mm 7 m/s 731 mmHg 83%
    02:00 0°C° 0.1 mm 7 m/s 731 mmHg 81%
    03:00 0°C° 0 mm 7 m/s 731 mmHg 83%
    04:00 0°C° 0 mm 7 m/s 731 mmHg 84%
    05:00 +1°C° 0 mm 6 m/s 732 mmHg 86%
    06:00 +1°C° 0.1 mm 6 m/s 732 mmHg 86%
    07:00 0°C° 0.1 mm 5 m/s 732 mmHg 85%
    08:00 0°C° 0.1 mm 5 m/s 733 mmHg 85%
    09:00 0°C° 0 mm 5 m/s 733 mmHg 82%
    10:00 +1°C° 0 mm 5 m/s 734 mmHg 78%
    11:00 +1°C° 0 mm 5 m/s 734 mmHg 75%
    12:00 +1°C° 0 mm 6 m/s 734 mmHg 74%
    13:00 +1°C° 0 mm 6 m/s 735 mmHg 72%
    14:00 +2°C° 0 mm 7 m/s 735 mmHg 71%
    15:00 +1°C° 0 mm 6 m/s 735 mmHg 71%
    16:00 +1°C° 0 mm 6 m/s 735 mmHg 70%
    17:00 -1°C° 0 mm 6 m/s 736 mmHg 70%
    18:00 -1°C° 0 mm 6 m/s 736 mmHg 72%
    19:00 0°C° 0 mm 5 m/s 736 mmHg 74%
    20:00 -1°C° 0 mm 5 m/s 737 mmHg 77%
    21:00 -1°C° 0 mm 5 m/s 737 mmHg 78%
    22:00 -2°C° 0 mm 5 m/s 737 mmHg 79%
    23:00 -2°C° 0 mm 5 m/s 737 mmHg 81%
    Mostrar mais